EW5474 Weather Reports


Display with metric or nautical units.
time (UTC)temp
F
wind
direction
speed
MPH
gust
MPH
rain 1hr
in
rain 24hr
in
rain mn
in
humidity
%
barometer
mb
20200710190510 91 294 1.0 4.0 0.00 0.20 0.05 58 1008.5
20200710190012 91 169 1.0 4.0 0.00 0.20 0.05 59 1008.6
20200710185508 91 293 1.0 3.0 0.00 0.20 0.05 59 1008.7
20200710185004 91 293 1.0 5.0 0.00 0.20 0.05 59 1008.7
20200710184503 91 310 1.0 5.0 0.00 0.20 0.05 57 1008.7
20200710184004 91 286 1.0 4.0 0.00 0.20 0.05 59 1008.8
20200710183504 91 132 1.0 3.0 0.00 0.20 0.05 59 1008.8
20200710183006 91 129 1.0 3.0 0.00 0.20 0.05 60 1008.9
20200710182458 91 49 1.0 3.0 0.00 0.20 0.05 62 1009.0
20200710181956 91 117 1.0 3.0 0.00 0.20 0.05 61 1009.1
20200710181453 91 311 1.0 2.0 0.00 0.20 0.05 61 1009.1
20200710180951 91 141 1.0 4.0 0.00 0.20 0.05 60 1009.1
20200710180451 91 300 1.0 4.0 0.00 0.20 0.05 60 1009.1
20200710175948 91 292 1.0 4.0 0.00 0.20 0.05 60 1009.1
20200710175449 91 280 1.0 4.0 0.00 0.20 0.05 59 1009.2
20200710174950 91 90 1.0 3.0 0.00 0.20 0.05 63 1009.3
20200710174447 91 300 1.0 5.0 0.00 0.20 0.05 61 1009.4
20200710173945 91 169 1.0 5.0 0.00 0.20 0.05 62 1009.4
20200710173445 91 140 1.0 3.0 0.00 0.20 0.05 63 1009.6
20200710172944 91 298 1.0 3.0 0.00 0.20 0.05 64 1009.6
20200710172439 91 313 1.0 3.0 0.00 0.20 0.05 63 1009.6
20200710171938 91 103 1.0 3.0 0.00 0.20 0.05 65 1009.7
20200710171445 90 303 1.0 4.0 0.00 0.20 0.05 63 1009.7
20200710170939 90 311 1.0 4.0 0.00 0.20 0.05 63 1009.8
20200710170439 91 316 0.0 3.0 0.00 0.20 0.05 63 1009.7
20200710165936 90 318 0.0 3.0 0.00 0.20 0.05 63 1009.7
20200710165434 90 318 1.0 3.0 0.00 0.20 0.05 63 1009.8
20200710164933 90 111 1.0 3.0 0.00 0.20 0.05 64 1009.9
20200710164439 89 9 1.0 3.0 0.00 0.20 0.05 66 1010.0
20200710163933 90 348 1.0 3.0 0.00 0.20 0.05 64 1009.8
20200710163436 90 324 1.0 3.0 0.00 0.20 0.05 65 1010.0
20200710162932 90 313 1.0 3.0 0.00 0.20 0.05 65 1010.1
20200710162428 90 71 1.0 3.0 0.00 0.20 0.05 67 1010.0
20200710161931 89 349 1.0 3.0 0.00 0.20 0.05 66 1010.1
20200710161431 89 319 1.0 3.0 0.00 0.20 0.05 66 1010.1
20200710160930 89 279 1.0 3.0 0.00 0.20 0.05 67 1010.0
20200710160427 89 297 1.0 4.0 0.00 0.20 0.05 69 1010.0
20200710155924 88 296 1.0 4.0 0.00 0.20 0.05 68 1010.1
20200710155423 88 22 1.0 3.0 0.00 0.20 0.05 69 1010.0
20200710154924 88 42 1.0 3.0 0.00 0.20 0.05 69 1010.0
20200710154424 87 140 1.0 3.0 0.00 0.20 0.05 72 1010.0
20200710153922 87 140 1.0 4.0 0.00 0.20 0.05 71 1010.0
20200710153421 87 316 1.0 4.0 0.00 0.20 0.05 74 1009.8
20200710152917 86 322 1.0 2.0 0.00 0.20 0.05 73 1009.8
20200710152417 86 325 1.0 3.0 0.00 0.20 0.05 74 1009.8
20200710151917 86 9 1.0 3.0 0.00 0.20 0.05 74 1009.7
20200710151415 85 132 1.0 3.0 0.00 0.20 0.05 74 1009.7
20200710150916 85 284 2.0 3.0 0.00 0.20 0.05 74 1009.7
20200710150415 85 281 2.0 3.0 0.00 0.20 0.05 76 1009.7
20200710145911 84 315 1.0 3.0 0.00 0.20 0.05 77 1009.6
20200710145412 84 284 1.0 4.0 0.00 0.20 0.05 77 1009.6
20200710144908 84 291 1.0 4.0 0.00 0.20 0.05 80 1009.6
20200710144410 83 307 0.0 2.0 0.00 0.20 0.05 80 1009.7
20200710143911 83 311 0.0 0.0 0.00 0.20 0.05 81 1009.5
20200710143415 82 311 0.0 0.0 0.00 0.20 0.05 81 1009.6
20200710142902 82 313 0.0 0.0 0.00 0.20 0.05 82 1009.6
20200710142401 82 313 0.0 2.0 0.00 0.20 0.05 82 1009.6
20200710141859 82 313 1.0 3.0 0.00 0.20 0.05 82 1009.5
20200710141359 82 309 0.0 3.0 0.00 0.20 0.05 82 1009.4
20200710140857 82 146 0.0 1.0 0.00 0.20 0.05 83 1009.3
20200710140353 81 169 0.0 1.0 0.00 0.20 0.05 84 1009.3
20200710135853 81 344 0.0 2.0 0.00 0.20 0.05 83 1009.3
20200710135354 81 346 0.0 4.0 0.00 0.20 0.05 84 1009.3
20200710134853 80 11 0.0 4.0 0.00 0.20 0.05 83 1009.4
20200710134352 80 302 0.0 3.0 0.00 0.20 0.05 84 1009.3
20200710133851 80 302 0.0 3.0 0.00 0.20 0.05 85 1009.3
20200710133350 80 248 0.0 3.0 0.00 0.20 0.05 86 1009.3
20200710132847 79 248 0.0 3.0 0.00 0.20 0.05 87 1009.3
20200710132345 79 40 0.0 2.0 0.00 0.20 0.05 88 1009.3
20200710131845 79 243 0.0 4.0 0.00 0.20 0.05 88 1009.2
20200710131346 79 295 0.0 4.0 0.00 0.20 0.05 89 1009.3
20200710130845 78 343 0.0 2.0 0.00 0.20 0.05 90 1009.3
20200710130344 78 346 0.0 2.0 0.00 0.20 0.05 91 1009.3
20200710125842 78 346 0.0 2.0 0.00 0.20 0.05 92 1009.4
20200710125339 78 350 0.0 2.0 0.00 0.20 0.05 92 1009.4
20200710124838 78 31 0.0 1.0 0.00 0.20 0.05 93 1009.2
20200710124335 77 31 0.0 1.0 0.00 0.20 0.05 93 1009.3
20200710123837 77 28 0.0 4.0 0.00 0.20 0.05 94 1009.2
20200710123332 77 28 0.0 4.0 0.00 0.20 0.05 94 1009.2
20200710122831 77 333 0.0 3.0 0.00 0.20 0.05 94 1009.1
20200710122334 77 11 0.0 3.0 0.00 0.20 0.05 95 1009.1
20200710121834 77 338 0.0 2.0 0.00 0.20 0.05 95 1009.1
20200710121331 76 338 0.0 2.0 0.00 0.20 0.05 95 1009.1
20200710120829 76 317 0.0 2.0 0.00 0.20 0.05 95 1009.1
20200710120322 76 317 0.0 2.0 0.00 0.20 0.05 95 1009.1
20200710115822 76 317 0.0 2.0 0.00 0.20 0.05 95 1009.1
20200710115322 76 20 0.0 2.0 0.00 0.20 0.05 95 1009.1
20200710114819 76 329 0.0 2.0 0.00 0.20 0.05 95 1009.3
20200710114318 76 10 0.0 3.0 0.00 0.20 0.05 95 1009.2
20200710113815 76 43 0.0 3.0 0.00 0.20 0.05 95 1009.1
20200710113315 76 60 0.0 2.0 0.00 0.20 0.05 95 1009.1
20200710112816 76 109 0.0 2.0 0.00 0.20 0.05 95 1009.0
20200710112313 76 109 0.0 1.0 0.00 0.20 0.05 95 1009.0
20200710111813 76 109 0.0 1.0 0.00 0.20 0.05 95 1008.9
20200710111311 76 109 0.0 0.0 0.00 0.20 0.05 95 1008.9
20200710110809 76 109 0.0 3.0 0.00 0.20 0.05 95 1008.9
20200710110307 76 109 0.0 3.0 0.00 0.20 0.05 95 1008.9
20200710105807 76 37 0.0 1.0 0.00 0.20 0.05 95 1008.8
20200710105309 76 37 0.0 1.0 0.00 0.20 0.05 95 1008.7
20200710104806 76 37 0.0 1.0 0.00 0.20 0.05 95 1008.7
20200710104305 76 37 0.0 1.0 0.00 0.20 0.05 95 1008.7
20200710103802 76 37 0.0 0.0 0.00 0.20 0.05 95 1008.6
20200710103303 75 37 0.0 2.0 0.00 0.20 0.05 95 1008.5
20200710102807 75 37 0.0 2.0 0.00 0.20 0.05 95 1008.5
20200710102304 75 37 0.0 1.0 0.00 0.20 0.05 95 1008.6
20200710101800 75 37 0.0 1.0 0.00 0.20 0.05 95 1008.6
20200710101300 75 37 0.0 1.0 0.00 0.20 0.05 95 1008.6
20200710100800 75 37 0.0 1.0 0.00 0.20 0.05 95 1008.6
20200710100256 76 37 0.0 3.0 0.00 0.20 0.05 95 1008.7
20200710095755 76 37 0.0 4.0 0.00 0.20 0.05 95 1008.6
20200710095253 76 63 0.0 4.0 0.00 0.20 0.05 95 1008.6
20200710094753 76 23 0.0 2.0 0.00 0.20 0.05 95 1008.5
20200710094303 76 23 0.0 0.0 0.00 0.20 0.05 95 1008.4
20200710093753 76 23 0.0 1.0 0.00 0.20 0.05 95 1008.3
20200710093251 76 23 0.0 1.0 0.00 0.20 0.05 95 1008.4
20200710092747 76 24 0.0 1.0 0.00 0.20 0.05 95 1008.3
20200710092248 76 24 0.0 1.0 0.00 0.20 0.05 95 1008.3
20200710091753 76 24 0.0 3.0 0.00 0.20 0.05 95 1008.3
20200710091248 76 24 0.0 3.0 0.00 0.20 0.05 95 1008.3
20200710090744 75 5 0.0 2.0 0.00 0.20 0.05 95 1008.3
20200710090243 75 355 0.0 3.0 0.00 0.20 0.05 95 1008.3
20200710085743 75 344 0.0 3.0 0.00 0.20 0.05 95 1008.2
20200710085244 75 31 0.0 2.0 0.00 0.20 0.05 95 1008.2
20200710084741 75 44 0.0 2.0 0.00 0.20 0.05 95 1008.2
20200710084242 75 44 0.0 2.0 0.00 0.20 0.05 95 1008.2
20200710083736 75 44 0.0 2.0 0.00 0.20 0.05 95 1008.2
20200710083235 75 44 0.0 2.0 0.00 0.20 0.05 95 1008.2
20200710082731 75 45 0.0 1.0 0.00 0.20 0.05 95 1008.3
20200710082229 75 45 0.0 1.0 0.00 0.20 0.05 95 1008.3
20200710081730 75 45 0.0 2.0 0.00 0.20 0.05 95 1008.2
20200710081223 75 45 0.0 2.0 0.00 0.20 0.05 95 1008.3
20200710080721 75 45 0.0 4.0 0.00 0.20 0.05 95 1008.4
20200710080221 75 45 0.0 4.0 0.00 0.20 0.05 95 1008.4
20200710075721 75 229 0.0 2.0 0.00 0.20 0.05 95 1008.4
20200710075219 75 344 0.0 2.0 0.00 0.20 0.05 95 1008.4
20200710074715 74 344 0.0 2.0 0.00 0.20 0.05 95 1008.2
20200710074214 74 344 0.0 2.0 0.00 0.20 0.05 95 1008.3
20200710073714 74 340 0.0 1.0 0.00 0.20 0.05 95 1008.4
20200710073213 74 350 0.0 1.0 0.00 0.20 0.05 95 1008.5
20200710072712 74 350 0.0 1.0 0.00 0.20 0.05 95 1008.4
20200710072211 74 350 0.0 1.0 0.00 0.20 0.05 95 1008.3
20200710071705 74 350 0.0 1.0 0.00 0.20 0.05 95 1008.3
20200710071204 74 0 0.0 2.0 0.00 0.20 0.05 95 1008.4
20200710070701 74 355 0.0 2.0 0.00 0.20 0.05 95 1008.5
20200710070200 74 5 0.0 2.0 0.00 0.20 0.05 95 1008.6
20200710065702 74 323 0.0 2.0 0.00 0.20 0.05 95 1008.7
20200710065154 74 323 0.0 2.0 0.00 0.20 0.05 95 1008.7
20200710064659 74 18 1.0 2.0 0.00 0.20 0.05 94 1008.8
20200710064152 74 9 1.0 3.0 0.00 0.20 0.05 94 1008.8
20200710063654 74 24 0.0 3.0 0.00 0.20 0.05 94 1008.8
20200710063156 74 346 0.0 1.0 0.00 0.20 0.05 94 1008.8
20200710062653 74 346 0.0 2.0 0.00 0.20 0.05 94 1008.7
20200710062147 74 347 0.0 2.0 0.00 0.20 0.05 94 1008.8
20200710061646 75 321 0.0 2.0 0.00 0.20 0.05 94 1008.9
20200710061146 75 40 0.0 1.0 0.00 0.20 0.05 94 1008.9
20200710060648 75 40 0.0 1.0 0.00 0.20 0.05 94 1008.9
20200710060147 75 40 0.0 4.0 0.00 0.20 0.05 94 1009.1
20200710055647 75 40 0.0 4.0 0.00 0.20 0.05 94 1009.2
20200710055143 75 341 0.0 2.0 0.00 0.20 0.05 94 1009.4
20200710054644 75 341 0.0 2.0 0.00 0.20 0.05 94 1009.6
20200710054147 75 320 0.0 2.0 0.00 0.20 0.05 94 1009.3
20200710053644 75 320 0.0 2.0 0.00 0.20 0.05 94 1009.4
20200710053141 75 306 1.0 2.0 0.00 0.20 0.05 93 1009.5
20200710052642 75 306 1.0 3.0 0.00 0.20 0.05 93 1009.4
20200710052141 75 18 0.0 3.0 0.00 0.20 0.05 93 1009.6
20200710051637 75 16 0.0 3.0 0.00 0.20 0.05 93 1009.7
20200710051135 75 338 0.0 4.0 0.01 0.20 0.05 93 1009.8
20200710050636 75 342 0.0 4.0 0.02 0.20 0.05 93 1009.8
20200710050136 76 289 0.0 3.0 0.05 0.20 0.05 92 1009.9
20200710045635 76 298 1.0 5.0 0.14 0.20 0.05 92 1009.9
20200710045134 76 280 1.0 5.0 0.15 0.20 0.05 92 1009.9
20200710044632 76 23 0.0 3.0 0.15 0.20 0.05 92 1009.8
20200710044128 76 25 0.0 3.0 0.20 0.20 0.05 92 1010.0
20200710043626 76 21 0.0 2.0 0.20 0.20 0.05 92 1009.9
20200710043125 76 21 0.0 2.0 0.20 0.20 0.05 91 1009.9
20200710042625 76 21 1.0 4.0 0.20 0.20 0.05 91 1009.8
20200710042124 76 21 1.0 4.0 0.20 0.20 0.05 91 1009.9
20200710041623 76 44 0.0 2.0 0.20 0.20 0.05 90 1010.1
20200710041118 77 44 0.0 1.0 0.19 0.19 0.04 90 1010.1
20200710040617 77 44 0.0 1.0 0.18 0.18 0.03 90 1010.1
20200710040114 77 44 0.0 2.0 0.15 0.15 0.00 90 1010.1
20200710035615 77 44 1.0 2.0 0.06 0.06 0.07 89 1010.2
20200710035115 77 44 1.0 3.0 0.05 0.05 0.05 89 1010.1
20200710034610 78 27 1.0 4.0 0.05 0.05 0.05 90 1010.2
20200710034112 77 9 1.0 7.0 0.00 0.00 0.00 90 1010.3
20200710033608 77 33 1.0 7.0 0.00 0.00 0.00 90 1010.2
20200710033110 77 344 1.0 3.0 0.00 0.00 0.00 89 1010.3
20200710032609 77 5 1.0 4.0 0.00 0.00 0.00 89 1010.3
20200710032110 77 24 1.0 4.0 0.00 0.00 0.00 89 1010.1
20200710031607 77 342 1.0 3.0 0.00 0.00 0.00 89 1010.0
20200710031108 77 17 1.0 5.0 0.00 0.00 0.00 89 1010.1
20200710030607 77 24 1.0 5.0 0.00 0.00 0.00 89 1010.1
20200710030106 77 19 1.0 5.0 0.00 0.00 0.00 89 1010.1
20200710025604 77 18 1.0 5.0 0.00 0.00 0.00 89 1010.2
20200710025105 78 310 1.0 4.0 0.00 0.00 0.00 89 1010.4
20200710024601 78 32 1.0 4.0 0.00 0.00 0.00 89 1010.4
20200710024059 78 27 1.0 5.0 0.00 0.00 0.00 89 1010.4
20200710023600 78 308 1.0 5.0 0.00 0.00 0.00 89 1010.5
20200710023059 78 9 1.0 3.0 0.00 0.00 0.00 89 1010.4
20200710022557 78 16 1.0 3.0 0.00 0.00 0.00 89 1010.4
20200710022058 78 38 1.0 4.0 0.00 0.00 0.00 89 1010.4
20200710021556 78 26 1.0 4.0 0.00 0.00 0.00 88 1010.5
20200710021053 78 26 1.0 3.0 0.00 0.00 0.00 88 1010.6
20200710020551 78 15 1.0 3.0 0.00 0.00 0.00 88 1010.5
20200710020053 78 38 0.0 3.0 0.00 0.00 0.00 88 1010.4
20200710015624 78 79 0.0 3.0 0.00 0.00 0.00 88 1010.4
20200710015051 78 79 1.0 3.0 0.00 0.00 0.00 88 1010.4
20200710014600 78 344 1.0 4.0 0.00 0.00 0.00 88 1010.3
20200710014048 78 315 1.0 4.0 0.00 0.00 0.00 88 1010.4
20200710013544 78 0 1.0 7.0 0.00 0.00 0.00 88 1010.3
20200710013045 78 10 1.0 7.0 0.00 0.00 0.00 88 1010.3
20200710012547 78 21 0.0 3.0 0.00 0.00 0.00 87 1010.3
20200710012045 78 21 0.0 3.0 0.00 0.00 0.00 87 1010.4
20200710011544 78 346 1.0 3.0 0.00 0.00 0.00 87 1010.4
20200710011038 78 24 1.0 3.0 0.00 0.00 0.00 87 1010.2
20200710010535 78 329 1.0 4.0 0.00 0.00 0.00 87 1010.2
20200710010041 78 333 1.0 4.0 0.00 0.00 0.00 87 1010.1
20200710005533 78 29 1.0 4.0 0.00 0.00 0.00 86 1010.1
20200710005028 78 304 1.0 4.0 0.00 0.00 0.00 86 1010.2
20200710004526 79 253 1.0 4.0 0.00 0.00 0.00 86 1010.3
20200710004023 79 34 1.0 3.0 0.00 0.00 0.00 86 1010.3
20200710003525 79 14 1.0 3.0 0.00 0.00 0.00 86 1010.4
20200710003022 79 347 1.0 3.0 0.00 0.00 0.00 86 1010.4
20200710002514 79 348 1.0 3.0 0.00 0.00 0.00 86 1010.4
20200710002014 79 28 1.0 4.0 0.00 0.00 0.00 86 1010.5
20200710001515 79 28 1.0 4.0 0.00 0.00 0.00 86 1010.5
20200710001018 79 355 1.0 4.0 0.00 0.00 0.00 85 1010.5
20200710000518 79 293 1.0 4.0 0.00 0.00 0.00 85 1010.4
20200710000015 79 345 1.0 4.0 0.00 0.00 0.00 85 1010.5
20200709235513 80 309 2.0 4.0 0.00 0.00 0.00 84 1010.5
20200709235010 80 5 2.0 10.0 0.00 0.00 0.00 84 1010.5
20200709234516 80 17 2.0 10.0 0.00 0.00 0.00 85 1010.5
20200709234014 80 29 1.0 4.0 0.00 0.00 0.00 85 1010.5
20200709233510 80 322 1.0 4.0 0.00 0.00 0.00 85 1010.4
20200709233009 80 102 2.0 6.0 0.00 0.00 0.00 84 1010.3
20200709232506 80 29 2.0 6.0 0.00 0.00 0.00 84 1010.3
20200709232003 80 46 2.0 4.0 0.00 0.00 0.00 84 1010.4
20200709231503 80 36 2.0 5.0 0.00 0.00 0.00 83 1010.5
20200709231003 81 33 2.0 5.0 0.00 0.00 0.00 83 1010.7
20200709230503 81 53 2.0 4.0 0.00 0.00 0.00 82 1010.6
20200709230005 81 24 1.0 4.0 0.00 0.00 0.00 82 1010.6
20200709225501 81 298 1.0 4.0 0.00 0.00 0.00 82 1010.6
20200709225000 81 339 2.0 4.0 0.00 0.00 0.00 82 1010.6
20200709224500 82 355 2.0 4.0 0.00 0.00 0.00 81 1010.6
20200709224000 82 53 2.0 4.0 0.00 0.00 0.00 81 1010.6
20200709223458 82 32 2.0 7.0 0.00 0.00 0.00 80 1010.7
20200709222957 82 27 2.0 7.0 0.00 0.00 0.00 80 1010.7
20200709222450 82 110 2.0 5.0 0.00 0.00 0.00 80 1010.7
20200709221951 82 84 2.0 6.0 0.00 0.00 0.00 80 1010.8
20200709221451 82 49 2.0 6.0 0.00 0.00 0.00 80 1010.8
20200709220952 82 145 2.0 8.0 0.00 0.00 0.00 80 1010.8
20200709220452 82 39 2.0 8.0 0.00 0.00 0.00 79 1010.8
20200709215951 82 30 2.0 5.0 0.00 0.00 0.00 79 1010.9
20200709215449 82 35 2.0 7.0 0.00 0.00 0.00 78 1011.0
20200709214946 82 281 2.0 7.0 0.00 0.00 0.00 78 1011.0
20200709214449 83 29 2.0 4.0 0.00 0.00 0.00 78 1011.1
20200709213947 83 28 2.0 6.0 0.00 0.00 0.00 78 1011.1
20200709213445 83 77 2.0 6.0 0.00 0.00 0.00 78 1011.0
20200709212945 83 17 2.0 3.0 0.00 0.00 0.00 79 1011.1
20200709212440 83 30 2.0 3.0 0.00 0.00 0.00 80 1011.1
20200709211940 83 43 2.0 4.0 0.00 0.00 0.00 80 1011.2
20200709211442 83 36 1.0 4.0 0.00 0.00 0.00 79 1011.4
20200709210942 83 46 1.0 4.0 0.00 0.00 0.00 79 1011.4
20200709210440 83 355 0.0 0.0 0.00 0.00 0.00 78 1011.4
20200709205950 83 350 0.0 0.0 0.00 0.00 0.00 77 1011.3
20200709205434 83 18 0.0 0.0 0.00 0.00 0.00 77 1011.2
20200709204932 83 80 0.0 0.0 0.00 0.00 0.00 77 1011.2
20200709204429 84 344 0.0 0.0 0.00 0.00 0.00 77 1011.2
20200709203926 84 113 0.0 0.0 0.00 0.00 0.00 77 1011.2
20200709203430 84 32 0.0 0.0 0.00 0.00 0.00 77 1011.2
20200709202924 84 117 0.0 0.0 0.00 0.00 0.00 77 1011.2
20200709202424 84 106 0.0 0.0 0.00 0.00 0.00 76 1011.2
20200709201922 84 63 0.0 0.0 0.00 0.00 0.00 76 1011.2
20200709201422 84 122 0.0 0.0 0.00 0.00 0.00 76 1011.1
20200709200922 84 72 0.0 0.0 0.00 0.00 0.00 76 1011.2
20200709200421 84 22 0.0 0.0 0.00 0.00 0.00 76 1011.2
20200709195919 84 142 0.0 0.0 0.00 0.00 0.00 76 1011.3
20200709195419 84 40 0.0 0.0 0.00 0.00 0.00 77 1011.3
20200709194918 84 28 0.0 0.0 0.00 0.00 0.00 77 1011.3
20200709194419 84 130 0.0 0.0 0.00 0.00 0.00 78 1011.2
20200709193917 84 312 0.0 0.0 0.00 0.00 0.00 77 1011.3
20200709193417 84 140 0.0 0.0 0.00 0.00 0.00 78 1011.2
20200709192909 84 28 0.0 0.0 0.00 0.00 0.00 78 1011.2
20200709192407 84 35 0.0 0.0 0.00 0.00 0.00 78 1011.4
20200709191906 84 296 0.0 0.0 0.00 0.00 0.00 78 1011.4
20200709191407 84 32 0.0 0.0 0.00 0.00 0.00 77 1011.6
20200709190903 84 41 0.0 0.0 0.00 0.00 0.00 78 1011.7